Hourly Data Report for March 03, 2012

All times are specified in Local Standard Time (LST). Add 1 hour to adjust for Daylight Saving Time where and when it is observed.

MIRAMICHI RCS
NEW BRUNSWICK

47°00'34.000" N
65°27'54.000" W
33.00 m
8100989
71744
ACQ

Download Data

Hourly Data (March 2012)
Hourly Data Report for March 3, 2012
TIME Temp Definition
°C
Dew Point Temp Definition
°C
Rel Hum Definition
%
Wind Dir Definition
10's deg

Wind Spd Definition
km/h
Visibility Definition
km
Stn Press Definition
kPa
Hmdx Definition


Wind Chill Definition


Weather Definition


00:00 -16.0 -18.3 82 30 2   101.64   -17 LegendNANA
01:00 -17.2 -19.6 82   0   101.51     LegendNANA
02:00 -17.2 -19.5 82 26 2   101.51   -19 LegendNANA
03:00 -18.3 -20.5 83   0   101.47     LegendNANA
04:00 -18.4 -20.7 82   0   101.38     LegendNANA
05:00 -18.2 -20.7 81   0   101.31     LegendNANA
06:00 -17.7 -19.9 83   0   101.17     LegendNANA
07:00 -16.4 -18.4 84 6 4   101.06   -19 LegendNANA
08:00 -14.1 -15.6 88   0   101.07     LegendNANA
09:00 -12.7 -14.5 86 7 2   100.99   -14 LegendNANA
10:00 -9.5 -11.1 88 7 6   100.81   -13 LegendNANA
11:00 -3.8 -5.6 87 13 13   100.67   -9 LegendNANA
12:00 -3.1 -5.6 83 14 15   100.52   -8 LegendNANA
13:00 -2.4 -5.2 81 13 19   100.27   -8 LegendNANA
14:00 -2.1 -4.4 84 11 20   99.98   -8 LegendNANA
15:00 -2.1 -4.0 87 10 15   99.73   -7 LegendNANA
16:00 -2.5 -3.4 94 10 13   99.57   -7 LegendNANA
17:00 -2.6 -3.3 95 6 11   99.25   -7 LegendNANA
18:00 -0.8 -1.4 96 8 11   99.01   -5 LegendNANA
19:00 -0.2 -0.8 96 7 11   98.82   -4 LegendNANA
20:00 -0.1 -0.7 96 2 6   98.63   -2 LegendNANA
21:00 0.0 -0.6 96 30 4   98.64   -1 LegendNANA
22:00 -0.5 -1.1 96 26 7   98.68   -3 LegendNANA
23:00 -2.6 -3.4 94 26 9   98.65   -6 LegendNANA

Notes on Data Quality.

Legend

  • E = Estimated
  • M = Missing
  • NA = Not Available
Date modified: